Clayton Lake, ME

8:59 AM EDT on August 23, 2017 (GMT -0400)
Clayton Lake

Weather History for K40B - May, 2014

Change the Weather History Date:

Thursday, May 8, 2014

  Actual Average Record
Temperature  
Mean Temperature 42 °F -  
Max Temperature 56 °F 56 °F 81 °F (2013)
Min Temperature 27 °F 32 °F 26 °F (2004)
Degree Days  
Heating Degree Days 24    
Moisture  
Dew Point 26 °F    
Average Humidity 61    
Maximum Humidity 99    
Minimum Humidity 24    
Precipitation  
Precipitation 0.03 in - - ()
Sea Level Pressure  
Sea Level Pressure 30.22 in    
Wind  
Wind Speed 2 mph (NNE)    
Max Wind Speed 12 mph    
Max Gust Speed 21 mph    
Averages and records for this station are not official NWS values.
T = Trace of Precipitation, MM = Missing Value Source: NWS Daily Summary

Daily Weather History Graph

Daily Weather History Graph

Search for Another Location

Airport or City:

Trip Planner

Search our weather history database for the weather conditions in past years. The results will help you decide how hot, cold, wet, or windy it might be!

Date:

Astronomy

May. 08, 2014 Rise Set
Actual Time 5:13 AM EDT 7:56 PM EDT
Civil Twilight 4:38 AM EDT 8:31 PM EDT
Nautical Twilight 3:54 AM EDT 9:15 PM EDT
Astronomical Twilight 3:03 AM EDT 10:07 PM EDT
Moon 1:32 PM EDT (5/8) 2:05 AM EDT (5/8)
Length of Visible Light 15h 52m
Length of Day
14h 43m
Waxing Gibbous, 64% of the Moon is Illuminated
May 8
Waxing Gibbous
May 14
Full
May 21
Last Quarter
May 28
New
Jun 5
First Quarter

Hourly Weather History & Observations

Time (EDT) Temp. Windchill Dew Point Humidity Pressure Visibility Wind Dir Wind Speed Gust Speed Precip Events Conditions
12:16 AM 31.5 °F - 30.4 °F 96% 30.17 in - Calm Calm - N/A   Unknown
1:16 AM 29.8 °F - 29.1 °F 97% 30.17 in - Calm Calm - N/A   Unknown
2:16 AM 29.3 °F - 28.8 °F 98% 30.17 in - Calm Calm - 0.01 in   Unknown
3:16 AM 28.6 °F - 28.2 °F 99% 30.18 in - Calm Calm - N/A   Unknown
4:16 AM 27.7 °F - 27.5 °F 99% 30.19 in - Calm Calm - N/A   Unknown
5:16 AM 28.2 °F - 27.9 °F 99% 30.21 in - Calm Calm - N/A   Unknown
6:16 AM 30.4 °F - 28.6 °F 93% 30.23 in - Calm Calm - 0.00 in   Unknown
7:16 AM 36.7 °F - 31.3 °F 81% 30.24 in - Calm Calm - 0.01 in   Unknown
8:16 AM 42.8 °F 40.1 °F 28.8 °F 58% 30.25 in - Variable 4.6 mph - N/A   Unknown
9:16 AM 45.0 °F 41.2 °F 25.5 °F 47% 30.25 in - Variable 6.9 mph 13.8 mph N/A   Unknown
10:16 AM 47.8 °F - 25.9 °F 42% 30.24 in - Variable 5.8 mph 13.8 mph N/A   Unknown
11:16 AM 50.4 °F - 23.5 °F 35% 30.23 in - Calm Calm - N/A   Unknown
12:16 PM 51.4 °F - 23.9 °F 34% 30.23 in - Variable 3.5 mph 13.8 mph N/A   Unknown
1:16 PM 54.1 °F - 21.9 °F 29% 30.21 in - Variable 6.9 mph 17.3 mph N/A   Unknown
2:16 PM 54.9 °F - 18.9 °F 24% 30.19 in - NNE 11.5 mph 20.7 mph N/A   Unknown
3:16 PM 56.7 °F - 20.5 °F 25% 30.19 in - Variable 4.6 mph 12.7 mph N/A   Unknown
4:16 PM 54.3 °F - 19.4 °F 26% 30.19 in - Variable 5.8 mph 15.0 mph N/A   Unknown
5:16 PM 53.6 °F - 20.8 °F 28% 30.19 in - Variable 5.8 mph 12.7 mph N/A   Unknown
6:16 PM 52.9 °F - 20.3 °F 28% 30.19 in - Variable 3.5 mph - N/A   Unknown
7:16 PM 48.7 °F - 22.1 °F 35% 30.21 in - Variable 3.5 mph - N/A   Unknown
8:16 PM 41.0 °F - 29.7 °F 64% 30.23 in - Calm Calm - 0.00 in   Unknown
9:16 PM 36.0 °F - 28.4 °F 74% 30.26 in - Calm Calm - N/A   Unknown
10:16 PM 32.7 °F - 26.6 °F 78% 30.28 in - Calm Calm - 0.01 in   Unknown
11:16 PM 30.6 °F - 26.2 °F 84% 30.27 in - Calm Calm - N/A   Unknown